Content
SEND FEEDBACK

Daily
Averages
Monthly
Summary
United States of America

AGANA, GUAM


Home > North America > United States > Guam
Elevation: 74 meters     Latitude: 13 29N     Longitude: 144 48E

WEATHER
 
SELECT A DAY
Number of Records: 208,860;   Date Range: 1/1/95 - 7/20/14
 
SHARE

PRINT THIS DATA

[ ← Previous Day ]
WEATHER ALMANAC - 28 SEPTEMBER, 2013
[ Next Day → ]
[ °F ]   °C
Weather ElementAverageHighLow
Temperature27.2 °C30 °C (11:24 am)24 °C (2:40 am)
Dewpoint24.3 °C25 °C (1:54 am)23.9 °C (2:54 am)
Humidity84.9 %100 % (2:40 am)70 % (11:24 am)
Barometer1006.8 hPa1008.5 hPa (8:54 am)1004.4 hPa (3:54 pm)
Wind Speed7.2 km/h22.2 km/h (2:20 am)
Wind Gust27.8 km/h (2:20 am)
Weather ElementAverage
Visibility16.1 km
Wind DirectionESE (116.9 °)

Weather ElementTotal
Precipitation1.52 mm
Cooling Degree Days8.7 (Base 18.3)
Growing Degree Days17 (Base 10)
Averaged from 29 records on 28 September, 2013
WEATHER CONDITIONS BREAKOUT
WIND DIRECTION BREAKOUT
WEATHER BY HOUR - 28 SEPTEMBER, 2013
[ °F ]   °C
Local TimeTemperatureDewpointHumidityBarometerVisibilityWind DirectionWind SpeedGust SpeedPrecipitationEventsConditions
1:54 AM25.6 °C25 °C96 %1007.5 hPa16.1 kmSSW (200°)5.6 km/hOvercast
2:20 AM26 °C24 °C89 %1007.5 hPa16.1 kmWSW (240°)22.2 km/h27.8 km/hOvercast
2:40 AM24 °C24 °C100 %1007.1 hPa16.1 kmWSW (240°)13 km/hScattered Clouds
2:54 AM25 °C23.9 °C94 %1007.1 hPa16.1 kmWest (280°)11.1 km/hThunderstormThunderstorm
3:54 AM25 °C23.9 °C94 %1007.5 hPa16.1 kmCalm0 mmRain-ThunderstormLight Thunderstorms and Rain
4:54 AM25 °C24.4 °C96 %1007.5 hPa16.1 kmNE (40°)5.6 km/h1.02 mmRain-ThunderstormLight Thunderstorms and Rain
5:54 AM24.4 °C24.4 °C100 %1007.5 hPa16.1 kmSW (220°)7.4 km/h0.25 mmRain-ThunderstormLight Thunderstorms and Rain
6:54 AM24.4 °C24.4 °C100 %1007.5 hPa16.1 kmCalm0.25 mmThunderstormThunderstorm
7:03 AM25 °C24 °C94 %1007.8 hPa16.1 kmCalmClear
7:54 AM25.6 °C25 °C96 %1007.1 hPa16.1 kmCalmClear
8:54 AM26.7 °C23.9 °C85 %1008.5 hPa16.1 kmCalmClear
9:54 AM27.8 °C25 °C85 %1008.1 hPa16.1 kmSouth (190°)5.6 km/hScattered Clouds
10:54 AM29.4 °C25 °C77 %1007.1 hPa16.1 kmCalmScattered Clouds
11:14 AM29 °C24 °C74 %1007.5 hPa16.1 kmSSE (150°)9.3 km/hMostly Cloudy
11:24 AM30 °C24 °C70 %1007.5 hPa16.1 kmSSE (150°)13 km/hScattered Clouds
11:54 AM30 °C23.9 °C70 %1006.1 hPa16.1 kmSSE (150°)9.3 km/hClear
12:54 PM28.3 °C25 °C82 %1005.4 hPa16.1 kmSW (230°)11.1 km/hMostly Cloudy
1:15 PM28 °C24 °C79 %1006.1 hPa16.1 kmSouth (190°)13 km/hOvercast
1:54 PM29.4 °C23.9 °C72 %1004.7 hPa16.1 kmSSE (150°)11.1 km/hMostly Cloudy
2:54 PM30 °C24.4 °C72 %1004.7 hPa16.1 kmSSE (160°)14.8 km/hClear
3:54 PM29.4 °C24.4 °C74 %1004.4 hPa16.1 kmSSE (160°)14.8 km/hPartly Cloudy
4:54 PM28.9 °C23.9 °C74 %1005.1 hPa16.1 kmSSE (150°)13 km/hPartly Cloudy
5:54 PM27.8 °C24.4 °C82 %1005.4 hPa16.1 kmSSE (160°)9.3 km/hScattered Clouds
6:54 PM27.2 °C24.4 °C85 %1006.1 hPa16.1 kmSE (140°)7.4 km/hScattered Clouds
7:54 PM27.2 °C23.9 °C82 %1006.4 hPa16.1 kmEast (80°)5.6 km/hScattered Clouds
8:54 PM27.2 °C23.9 °C82 %1006.8 hPa16.1 kmCalmScattered Clouds
9:54 PM27.2 °C24.4 °C85 %1006.8 hPa16.1 kmCalmScattered Clouds
10:54 PM27.2 °C24.4 °C85 %1006.4 hPa16.1 kmESE (110°)5.6 km/hClear
11:54 PM26.7 °C24.4 °C87 %1006.1 hPa16.1 kmCalmClear
Hourly data recorded from PGUM, located 0 kilometers away from Agana, Guam







STORIES FROM OUR PARTNERS